Regional Weather Roundup
Issued by NWS Boston, MA

Current Version | Previous Version | Text Only | Print | Product List | Glossary Off
Versions: 1 2 3 4 5 6 7 8 9 10 11 12 13 14 15 16 17 18 19 20 21 22 23 24 25 26 27 28 29 30 31 32 33 34 35 36 37 38 39 40 41 42 43 44 45 46 47 48 49 50
000 ASUS41 KBOX 241810 RWRBOX REGIONAL WEATHER ROUNDUP NATIONAL WEATHER SERVICE TAUNTON MA 200 PM EDT SAT JUN 24 2017 NOTE: "FAIR" INDICATES FEW OR NO CLOUDS BELOW 12,000 FEET WITH NO SIGNIFICANT WEATHER AND/OR OBSTRUCTIONS TO VISIBILITY. MAZALL-241900- EASTERN MASSACHUSETTS CITY SKY/WX TMP DP RH WIND PRES REMARKS BOSTON MOSUNNY 80 70 71 W13 29.58R 6HR MIN TEMP: 73; 6HR MAX TEMP: 80; 6HR PCP: 0.08; BEVERLY MOSUNNY 83 69 62 NW13 29.57R LAWRENCE MOSUNNY 85 68 56 W14G22 29.59R BEDFORD MOSUNNY 81 68 64 W8 29.58R BLUE HILL N/A 79 70 74 W14G22 29.61R NORWOOD MOSUNNY 82 73 74 W12 29.59R MARSHFIELD MOSUNNY 81 73 78 W8G14 29.57R PLYMOUTH CLOUDY 79 72 79 SW8 29.59F TAUNTON MOSUNNY 82 71 69 W7 29.59R NEW BEDFORD CLOUDY 80 72 76 W9 29.59S $$ MAZALL-241900- CAPE COD AND THE ISLANDS CITY SKY/WX TMP DP RH WIND PRES REMARKS FALMOUTH MOSUNNY 75 72 88 SW8 29.60F HYANNIS PTSUNNY 75 71 87 SW10 29.59R CHATHAM CLOUDY 71 70 96 SW7G17 29.61S FOG PROVINCETOWN SUNNY 73 70 90 SW10 29.58F NANTUCKET CLOUDY 70 66 87 SW18 29.62R FOG MARTHAS VNYRD MOSUNNY 78 71 79 W8 29.61S $$ MAZALL-241900- CENTRAL AND WESTERN MASSACHUSETTS CITY SKY/WX TMP DP RH WIND PRES REMARKS WORCESTER SUNNY 79 59 50 W21G28 29.66R 6HR MIN TEMP: 70; 6HR MAX TEMP: 79; 6HR PCP: 0.09; FITCHBURG N/A 86 60 41 NW17G23 29.62 ORANGE MOSUNNY 81 59 47 W15G22 29.65R SPRINGFIELD MOSUNNY 83 59 44 W15 29.65R WESTFIELD SUNNY 84 56 38 NW21G29 29.65S NORTH ADAMS MOSUNNY 77 60 55 W13G21 29.70R PITTSFIELD SUNNY 77 55 46 NW18G29 29.73R $$ RIZALL-241900- RHODE ISLAND CITY SKY/WX TMP DP RH WIND PRES REMARKS PROVIDENCE MOSUNNY 83 68 60 W9 29.62R 6HR MIN TEMP: 71; 6HR MAX TEMP: 83; 6HR PCP: 0.66; NEWPORT MOSUNNY 81 72 74 W10 29.62R BLOCK ISLAND SUNNY 75 69 81 W17G24 29.65R WESTERLY MOSUNNY 76 69 79 SW14 29.64R $$ CTZALL-241900- CONNECTICUT CITY SKY/WX TMP DP RH WIND PRES REMARKS BRADLEY INTL MOSUNNY 85 55 35 NW16G26 29.67R 6HR MIN TEMP: 73; 6HR MAX TEMP: 85; 6HR PCP: TRACE; HARTFORD MOSUNNY 85 58 39 NW10G25 29.67R BRIDGEPORT MOSUNNY 88 59 37 NW15G23 29.68R DANBURY SUNNY 83 56 39 NW12G22 29.73R GROTON MOSUNNY 85 61 44 NW17G28 29.64R NEW HAVEN MOSUNNY 82 59 44 NW8G18 29.68R CHESTER FAIR 82 57 42 NW13G25 29.69R MERIDEN SUNNY 84 57 39 NW20 29.68R WILLIMANTIC MOSUNNY 85 62 46 W17G26 29.65R OXFORD MOSUNNY 81 55 41 NW12G23 29.73R $$ MEZ002-015-021-024-NHZ003-005-008-011-012-014-VTZ005-008-241900- NORTHERN NEW ENGLAND CITY SKY/WX TMP DP RH WIND PRES REMARKS PORTLAND ME CLOUDY 82 66 58 NW15 29.55R 6HR MIN TEMP: 75; 6HR MAX TEMP: 85; BANGOR ME CLOUDY 77 68 73 W12 29.53R CONCORD NH MOSUNNY 85 65 51 NW13 29.58S MANCHESTER NH MOSUNNY 84 61 45 W13 29.57S NASHUA NH PTSUNNY 84 66 54 NW12G17 29.60R PORTSMOUTH NH PTSUNNY 83 69 62 W9 29.55R JAFFREY NH PTSUNNY 81 60 48 NW9G21 29.65R KEENE NH PTSUNNY 81 59 47 W14 29.63R BURLINGTON VT PTSUNNY 82 56 40 NW10 29.63R MT. WASHINGTON FOG 48 48 100 NW39G52 N/A VSB 0 $$ NYZ052-076-241900- EASTERN NEW YORK CITY SKY/WX TMP DP RH WIND PRES REMARKS ALBANY MOSUNNY 80 58 46 NW16G24 29.71R 6HR MIN TEMP: 70; 6HR MAX TEMP: 80; 6HR PCP: 0.02; NEW YORK CITY MOSUNNY 85 56 37 W22G30 29.72R 6HR MIN TEMP: 70; 6HR MAX TEMP: 85; 6HR PCP: 0.18; $$ ANZALL-241900- MARINE OBSERVATIONS STATION/POSITION TIME TEMP WIND PRES VSBY WAVE AIR SEA DIR/SP/G HT/PER (UTC) (F) (DEG/KT/KT) (MB) (MI) (FT/S) BOSTON BUOY 1650 62 57 170/ 8/ 8 1001.0 1/ 4 BUZZARDS BAY 1700 64 230/ 15/ 15 1002.8R NANTUCKET SOUND 1750 66 1002.1R 2/ 4 MASS BAY-STELLWA 1704 63 60 200/ 8/ 10 1000.3S ISLE OF SHOALS 1700 72 200/ 19/ 19 1000.2R S OF BLOCK IS 1755 63 N/A 7/ 8 $$ ......................KEY......................... SKY/WX - SKY CONDITION/PRESENT WEATHER TMP - TEMPERATURE IN FAHRENHEIT DWPT - DEWPOINT IN FAHRENHEIT RH - RELATIVE HUMIDITY IN PERCENT WIND - DIRECTION AND SPEED IN MPH PRES - MEAN SEA LEVEL PRESSURE IN INCHES OF HG WCI - WIND CHILL INDEX VSB - VISIBILITY IN MILES HX - HEAT INDEX TC - TEMPERATURE IN CELSIUS VRB - VARIABLE WIND DIRECTION N/A - NOT AVAILABLE

USA.gov is the U.S. government's official web portal to all federal, state and local government web resources and services.